Wind_Speed
23 24 24 26 28 30 31 31 30 30 31 30 30 30 33 33 31 30 29 28 27 25 24 22 20 20 19 19 20 21 22 23 24 25 24 25 25 25 25 26 27 27 28 28
22 23 24 25 27 28 30 30 29 30 32 32 32 31 32 34 32 30 30 29 28 27 26 23 22 22 22 22 21 21 22 24 25 25 26 27 29 29 29 30 29 31 31 32
21 22 23 25 26 27 28 29 28 29 31 31 31 32 31 32 32 31 30 29 29 27 26 25 25 24 23 23 23 21 22 25 26 27 29 29 31 31 32 32 32 33 34 33
21 22 23 24 25 26 26 27 28 29 30 30 31 32 32 31 31 31 30 30 29 28 28 27 27 25 24 24 23 23 23 25 26 28 30 32 33 33 34 35 34 33 33 34
19 21 23 23 24 25 26 27 28 29 30 31 31 32 32 31 31 30 30 30 30 29 29 29 28 27 26 25 24 25 26 27 28 31 32 34 36 36 37 37 37 35 34 36
17 20 22 23 24 25 26 28 28 29 31 31 31 32 32 31 30 30 30 30 30 30 31 30 29 28 27 27 27 29 28 28 30 31 33 36 37 38 39 40 39 38 38 39
16 18 20 22 24 25 27 29 29 30 31 31 32 33 34 32 31 31 31 30 30 31 31 31 31 30 30 30 31 32 31 31 33 35 37 38 39 39 41 41 40 40 40 41
15 16 18 20 22 23 26 29 31 31 32 33 33 34 33 31 30 31 31 31 31 31 31 32 33 32 33 33 33 34 35 35 36 37 39 40 41 42 42 42 43 43 43 43
14 14 16 18 20 22 25 27 30 31 31 33 34 35 35 33 32 33 33 33 32 32 33 33 34 35 36 37 38 38 39 39 39 41 41 42 43 42 43 43 43 44 44 45
13 14 16 17 19 22 24 26 28 30 30 32 34 35 35 33 33 33 33 34 34 34 34 35 37 38 39 39 39 40 40 40 41 41 42 42 43 43 44 44 45 45 46 46
12 14 15 17 19 21 24 26 28 29 30 30 32 34 34 34 34 34 35 35 35 36 36 37 37 38 38 39 40 40 39 41 41 41 41 42 42 43 44 44 45 45 46 47
11 13 15 17 18 20 22 23 26 27 27 29 31 33 33 34 34 34 35 36 36 36 36 36 36 37 38 39 39 40 40 40 40 41 40 40 40 41 42 43 44 46 48 49
8 11 12 15 17 19 21 21 23 25 26 28 31 32 32 33 33 33 34 35 35 35 36 36 36 35 35 36 36 37 38 38 38 38 39 39 40 41 43 44 46 47 49 50
6 8 9 12 14 16 18 20 21 23 26 27 29 31 31 31 33 33 34 35 35 36 35 33 33 33 32 32 34 35 36 36 36 36 37 38 39 42 43 44 46 48 50 51
5 6 7 9 11 13 16 18 19 20 22 24 25 28 29 30 31 33 34 35 35 36 35 34 33 33 33 32 33 34 33 33 34 35 37 38 40 41 43 45 47 49 50 52
3 5 6 7 8 11 12 15 18 19 20 22 25 27 27 29 30 31 32 33 33 33 33 33 33 33 33 32 32 33 33 33 34 35 36 38 40 41 43 45 47 49 50 52
1 2 5 6 8 9 10 12 15 17 19 21 24 25 26 27 27 27 29 29 29 29 28 29 30 29 30 30 31 32 32 32 33 35 36 37 39 41 43 44 46 47 49 50
2 3 3 4 6 8 8 10 13 15 18 19 21 23 24 25 25 26 26 26 28 26 26 25 25 26 27 27 28 29 29 30 31 33 34 36 38 40 41 42 44 45 46 48
4 4 4 5 5 7 8 10 13 15 17 19 21 22 23 23 24 24 24 23 24 25 24 23 24 25 25 26 27 27 28 29 31 32 33 35 36 38 39 40 41 42 44 45
5 6 6 6 7 8 9 11 12 13 15 17 18 19 19 20 21 22 22 21 21 22 22 22 23 25 26 26 27 28 29 30 31 32 33 34 35 36 37 37 38 39 41 42
6 7 7 7 8 9 10 11 12 13 14 15 16 17 18 19 20 20 20 21 21 22 22 24 25 24 25 26 27 27 28 28 29 30 31 32 32 33 33 34 35 36 37 37
7 8 8 9 9 10 11 11 12 13 14 13 14 15 16 17 18 18 19 19 20 21 21 22 22 23 23 24 25 25 26 27 28 28 28 28 29 29 29 30 31 32 32 31
8 9 10 10 11 12 12 12 13 13 13 13 13 13 14 15 15 16 17 18 19 19 19 19 20 21 21 22 23 24 25 25 26 26 26 26 26 26 26 27 27 27 27 27
9 10 10 12 12 13 13 13 13 13 13 13 13 13 12 12 13 14 15 15 15 16 16 17 17 19 20 21 22 23 23 24 23 23 23 23 23 22 22 23 23 23 23 23
9 10 11 12 13 14 14 14 14 14 14 13 13 12 12 12 12 13 12 13 13 14 14 15 17 18 19 20 21 22 22 21 20 20 20 20 19 19 20 20 20 19 19 19
11 11 12 13 14 15 15 15 14 14 14 13 12 12 11 11 10 10 10 10 11 12 12 14 15 16 17 18 19 19 18 18 18 18 18 18 17 17 17 17 17 17 17 17
Wind_Direction
232 228 224 222 221 221 219 218 218 218 221 222 223 222 224 230 234 237 238 235 234 233 235 234 236 238 239 241 241 240 236 239 244 247 249 252 255 259 259 261 264 267 269 272
230 226 224 221 219 219 219 218 216 217 221 223 225 226 227 231 235 237 237 235 235 233 233 235 237 237 237 238 241 244 246 245 246 248 251 253 258 263 262 265 270 272 273 275
229 224 223 221 219 217 217 216 215 217 220 224 226 227 229 231 233 234 234 233 233 232 232 236 240 241 240 242 244 250 255 253 253 254 256 259 261 264 268 271 273 274 276 277
226 222 220 219 218 216 214 214 213 216 219 221 223 225 228 231 232 233 232 231 232 234 235 238 241 244 245 247 251 256 260 261 262 264 264 265 267 272 275 276 277 281 281 282
224 221 219 217 215 214 211 212 211 213 217 219 223 224 227 229 230 232 231 230 233 235 237 240 244 248 250 253 256 258 262 266 267 270 270 272 276 279 280 282 285 288 289 292
223 221 219 216 215 213 210 211 211 212 215 217 221 224 225 228 229 231 232 233 235 238 240 242 246 250 254 256 259 262 266 269 271 272 273 276 278 282 283 287 287 290 292 293
218 219 218 216 216 215 212 211 211 212 215 218 220 225 227 228 228 230 233 235 239 241 243 246 249 253 256 259 260 265 268 271 273 275 277 278 279 282 285 288 289 290 290 292
214 214 214 215 216 215 214 213 213 215 219 221 221 226 228 231 231 233 236 239 243 246 248 251 254 256 258 261 263 266 268 271 272 274 276 279 281 284 284 285 288 289 289 290
210 209 209 210 213 216 216 216 215 218 222 226 227 230 233 234 237 240 242 244 247 251 253 256 258 259 261 262 265 267 270 272 274 276 277 279 281 282 284 285 286 287 287 289
206 203 205 208 211 214 216 216 218 220 224 229 232 234 236 239 242 244 248 252 254 257 259 260 260 261 263 265 267 268 269 271 274 275 277 278 280 281 283 285 286 287 288 288
204 205 207 208 212 216 218 219 221 224 228 232 236 239 241 245 248 250 254 258 260 262 264 265 265 264 265 268 270 269 271 272 272 274 276 278 281 282 283 285 285 287 288 289
205 207 211 213 216 220 223 225 226 228 231 234 238 243 244 249 252 255 257 259 261 264 266 269 271 270 270 270 270 271 272 272 274 275 277 280 281 282 283 284 285 287 289 290
202 207 211 215 223 225 226 229 231 232 236 238 241 244 246 251 254 257 259 261 264 267 270 271 272 273 271 269 269 270 272 274 275 274 276 278 279 281 283 284 286 288 289 290
197 204 214 221 227 231 231 232 235 237 238 241 244 248 249 252 255 259 262 265 268 271 273 274 273 270 270 271 273 272 273 275 276 276 277 278 280 282 284 286 288 289 289 291
205 212 218 223 227 234 236 238 240 242 244 247 249 252 255 257 260 262 266 269 271 271 273 277 275 274 273 274 274 274 273 276 279 280 281 282 284 286 287 289 289 290 291 293
222 223 231 237 240 242 248 246 247 249 252 255 256 258 260 263 266 267 268 270 271 272 274 277 277 277 275 275 276 279 279 279 281 282 283 284 286 288 289 290 291 293 294 295
346 262 244 252 253 252 257 261 257 257 259 261 261 263 263 266 269 269 270 271 274 275 277 277 276 275 276 277 278 281 282 282 282 282 284 286 287 289 291 293 294 295 297 298
317 309 293 279 274 268 275 271 268 264 264 267 267 267 268 269 272 270 269 270 271 275 279 279 278 279 281 281 282 283 284 284 285 286 286 288 289 292 293 295 297 299 300 301
342 326 313 303 290 286 285 282 280 275 270 272 272 272 271 271 269 267 268 269 271 273 273 274 275 279 281 282 283 284 286 287 288 289 291 292 294 295 297 298 300 302 303 305
346 336 325 315 306 299 294 290 287 283 279 279 278 276 274 272 269 270 273 272 271 270 270 273 276 278 280 283 285 286 288 289 290 292 294 296 297 298 300 302 303 305 307 308
350 346 340 329 319 312 309 303 299 294 292 287 283 281 278 275 275 274 274 272 274 275 277 278 280 282 284 286 288 289 290 292 294 295 296 297 298 300 302 305 307 309 311 313
359 353 346 339 334 325 320 314 308 304 303 300 294 290 285 281 279 276 272 272 274 274 275 276 279 283 285 287 289 292 294 296 297 297 298 299 301 303 305 309 312 314 315 317
357 353 347 343 339 333 328 323 318 313 310 307 302 296 290 282 281 279 278 278 277 276 277 279 283 286 289 293 295 296 297 298 299 300 301 302 305 307 310 314 317 318 320 322
354 352 349 346 343 340 337 333 329 324 319 314 308 303 301 291 287 285 282 281 281 282 285 288 291 295 298 299 300 300 301 301 301 302 303 305 308 311 315 318 321 322 325 328
354 352 350 349 348 346 344 339 335 331 326 322 319 315 311 305 301 293 288 285 287 291 294 296 299 302 303 304 304 304 303 303 303 304 306 309 312 315 318 321 325 328 332 335
355 355 353 352 350 348 346 343 339 336 333 330 326 323 318 314 311 305 299 296 298 301 303 305 306 307 309 309 309 309 307 306 307 308 310 311 311 314 318 323 328 332 337 341
Height
5768 5773 5776 5780 5784 5789 5794 5799 5804 5808 5811 5816 5819 5823 5826 5828 5832 5835 5837 5841 5844 5847 5850 5852 5855 5857 5858 5859 5861 5862 5863 5864 5864 5865 5865 5865 5864 5863 5862 5860 5860 5859 5858 5857
5765 5769 5772 5775 5779 5784 5789 5795 5799 5803 5807 5811 5815 5818 5822 5825 5828 5830 5833 5836 5840 5843 5846 5848 5850 5852 5854 5855 5856 5857 5858 5858 5859 5859 5859 5859 5858 5857 5855 5854 5853 5852 5851 5850
5760 5765 5767 5771 5775 5780 5785 5790 5795 5798 5802 5806 5811 5814 5818 5820 5824 5826 5829 5832 5836 5839 5841 5843 5845 5847 5849 5850 5850 5851 5852 5853 5853 5853 5852 5852 5852 5850 5848 5846 5845 5844 5843 5841
5756 5760 5763 5767 5771 5776 5781 5785 5790 5794 5798 5802 5807 5810 5813 5816 5819 5822 5825 5828 5831 5834 5837 5839 5841 5842 5844 5845 5845 5846 5847 5848 5848 5847 5846 5845 5844 5843 5842 5840 5838 5836 5835 5834
5753 5756 5760 5764 5768 5772 5777 5781 5786 5790 5794 5798 5802 5806 5810 5812 5815 5819 5821 5824 5827 5830 5832 5834 5835 5837 5838 5839 5839 5840 5841 5841 5841 5840 5840 5839 5838 5836 5835 5832 5831 5830 5828 5827
5750 5753 5757 5760 5764 5768 5773 5778 5782 5786 5790 5795 5798 5802 5806 5808 5812 5815 5817 5820 5823 5825 5827 5828 5829 5831 5832 5833 5834 5834 5834 5834 5834 5833 5833 5832 5830 5828 5826 5824 5822 5822 5821 5819
5748 5751 5754 5757 5761 5766 5770 5775 5780 5784 5787 5791 5794 5797 5801 5804 5808 5811 5813 5815 5817 5819 5821 5823 5824 5825 5826 5827 5827 5827 5827 5827 5827 5826 5825 5824 5822 5821 5819 5817 5815 5814 5813 5812
5746 5749 5752 5755 5759 5763 5767 5771 5777 5781 5784 5787 5790 5793 5797 5800 5803 5806 5808 5810 5812 5814 5815 5817 5818 5819 5819 5820 5820 5820 5820 5820 5819 5818 5818 5816 5814 5813 5810 5809 5807 5806 5804 5803
5744 5747 5750 5753 5756 5760 5764 5768 5772 5776 5779 5783 5785 5788 5792 5795 5798 5800 5802 5804 5805 5807 5809 5810 5811 5811 5812 5813 5813 5813 5812 5812 5811 5810 5809 5808 5806 5804 5802 5800 5798 5797 5795 5793
5743 5746 5748 5751 5755 5758 5762 5765 5769 5772 5775 5778 5781 5783 5787 5790 5792 5794 5795 5797 5799 5800 5801 5802 5803 5804 5804 5805 5805 5805 5804 5803 5803 5801 5800 5799 5797 5796 5794 5791 5789 5787 5785 5783
5741 5745 5747 5750 5752 5755 5759 5762 5765 5768 5771 5774 5776 5781 5782 5784 5786 5788 5789 5790 5791 5792 5793 5794 5795 5795 5795 5795 5795 5795 5795 5795 5794 5792 5791 5790 5788 5787 5785 5782 5780 5777 5775 5772
5741 5743 5745 5748 5751 5753 5756 5758 5761 5765 5767 5769 5772 5777 5776 5778 5780 5781 5783 5783 5784 5785 5785 5786 5786 5787 5787 5787 5787 5786 5785 5785 5784 5783 5782 5780 5779 5777 5775 5773 5770 5767 5764 5761
5741 5743 5745 5747 5751 5752 5753 5755 5758 5760 5763 5764 5767 5771 5771 5772 5774 5775 5776 5776 5777 5778 5778 5778 5778 5778 5778 5778 5778 5777 5776 5775 5774 5773 5772 5770 5769 5767 5765 5762 5759 5756 5752 5749
5741 5742 5744 5747 5747 5749 5750 5752 5754 5757 5758 5760 5762 5764 5765 5766 5768 5768 5769 5770 5770 5770 5771 5771 5770 5770 5770 5769 5769 5768 5767 5766 5765 5764 5762 5761 5759 5756 5754 5751 5748 5744 5740 5736
5741 5742 5743 5744 5745 5747 5748 5750 5751 5753 5754 5756 5757 5758 5760 5761 5761 5762 5762 5763 5763 5763 5763 5762 5762 5761 5761 5760 5760 5759 5758 5757 5756 5755 5753 5751 5749 5746 5743 5740 5737 5733 5728 5724
5741 5742 5743 5744 5744 5745 5746 5747 5748 5750 5751 5751 5752 5753 5754 5754 5755 5755 5755 5756 5755 5755 5755 5755 5754 5753 5752 5752 5751 5750 5749 5748 5747 5745 5743 5741 5739 5736 5733 5729 5725 5721 5717 5712
5741 5742 5743 5743 5743 5744 5745 5745 5745 5746 5746 5747 5747 5749 5749 5749 5749 5749 5748 5748 5748 5747 5747 5747 5746 5745 5744 5743 5742 5742 5740 5739 5738 5736 5734 5731 5729 5726 5722 5719 5714 5710 5705 5700
5742 5742 5742 5742 5743 5742 5745 5742 5742 5742 5742 5742 5742 5743 5743 5743 5743 5742 5742 5741 5741 5740 5740 5739 5738 5737 5737 5735 5734 5733 5732 5731 5729 5727 5724 5722 5719 5716 5712 5708 5704 5699 5694 5689
5742 5742 5741 5741 5741 5741 5741 5739 5738 5738 5738 5737 5737 5737 5737 5737 5736 5736 5735 5735 5734 5734 5733 5732 5731 5730 5729 5728 5727 5726 5724 5722 5720 5718 5716 5713 5710 5706 5703 5699 5694 5689 5683 5678
5742 5741 5741 5740 5739 5738 5739 5737 5735 5735 5733 5733 5732 5731 5731 5731 5730 5730 5729 5728 5728 5727 5727 5726 5724 5723 5722 5721 5719 5718 5716 5714 5712 5709 5707 5704 5701 5697 5694 5689 5685 5680 5674 5668
5742 5741 5739 5738 5737 5736 5735 5733 5733 5732 5731 5728 5726 5726 5725 5725 5725 5724 5722 5722 5721 5721 5720 5719 5718 5717 5715 5714 5712 5710 5709 5706 5704 5701 5699 5696 5693 5689 5686 5681 5677 5672 5666 5660
5741 5740 5738 5737 5735 5736 5732 5730 5729 5728 5725 5723 5722 5721 5720 5719 5718 5717 5717 5716 5716 5715 5714 5713 5712 5710 5709 5707 5705 5703 5701 5699 5697 5694 5691 5689 5686 5682 5678 5674 5669 5665 5659 5654
5741 5740 5738 5737 5736 5732 5730 5728 5726 5723 5722 5720 5718 5716 5715 5714 5713 5712 5712 5711 5710 5709 5709 5707 5706 5704 5703 5701 5699 5697 5695 5693 5690 5687 5684 5682 5679 5675 5672 5668 5664 5659 5654 5649
5741 5739 5737 5735 5732 5730 5727 5725 5723 5720 5718 5716 5714 5713 5711 5710 5709 5708 5707 5706 5705 5705 5703 5702 5701 5699 5697 5696 5693 5691 5689 5686 5684 5681 5679 5676 5673 5669 5666 5663 5659 5654 5650 5645
5741 5738 5736 5734 5731 5728 5726 5723 5720 5718 5715 5713 5711 5710 5708 5707 5705 5704 5703 5703 5702 5700 5699 5698 5697 5695 5693 5691 5688 5686 5683 5680 5678 5676 5673 5670 5667 5665 5662 5658 5655 5651 5647 5642
5740 5738 5736 5733 5730 5728 5725 5721 5719 5716 5713 5711 5709 5707 5706 5704 5703 5702 5701 5700 5699 5698 5696 5695 5693 5691 5689 5686 5683 5681 5678 5675 5673 5670 5668 5665 5663 5660 5658 5655 5652 5648 5644 5640